Location: Dehesa de la Cepeda
(40.6574°N, 4.3013°W)
Time: 06:07:03
(UTC+00:00)

S-56A Canister/Altair - All Passes

Search period start: 31 July 2021 00:00
Search period end: 10 August 2021 00:00
Orbit: 631 x 2501 km, 38.9° (Epoch: 30 July)

Date Brightness Start Highest point End Pass type
(mag) Time Alt. Az. Time Alt. Az. Time Alt. Az.
31 Jul - 13:34:11 10° SSW 13:45:17 39° SE 13:58:29 10° ENE daylight
31 Jul - 15:37:00 10° WSW 15:50:45 71° SSE 16:05:38 10° E daylight
31 Jul - 17:42:41 10° W 17:57:49 84° S 18:11:39 10° E daylight
31 Jul - 19:49:35 10° W 20:04:31 67° SSW 20:16:18 10° SE visible
31 Jul - 21:57:36 10° W 22:09:04 32° SW 22:17:57 10° SSE visible
01 Aug - 13:01:50 10° SSW 13:12:07 34° SE 13:24:36 10° E daylight
01 Aug - 15:04:00 10° SW 15:17:11 68° SSE 15:32:09 10° E daylight
01 Aug - 17:09:16 10° W 17:24:07 84° S 17:38:28 10° E daylight
01 Aug - 19:15:55 10° W 19:31:03 71° SSW 19:43:30 10° ESE daylight
01 Aug - 21:23:36 10° W 21:36:03 37° SW 21:45:47 10° SSE visible
02 Aug - 12:29:39 10° S 12:39:03 30° SE 12:50:35 10° E daylight
02 Aug - 14:31:09 10° SW 14:43:41 64° SSE 14:58:35 10° ENE daylight
02 Aug - 16:35:58 10° W 16:50:25 84° S 17:05:10 10° E daylight
02 Aug - 18:42:21 10° W 18:57:31 74° SSW 19:10:36 10° ESE daylight
02 Aug - 20:49:41 10° WNW 21:02:57 41° SW 21:13:28 10° SSE visible
02 Aug - 23:02:40 10° WSW 23:05:54 11° WSW 23:08:56 10° SW visible
03 Aug - 11:57:39 10° S 12:06:04 25° SE 12:16:25 10° E daylight
03 Aug - 13:58:23 10° SW 14:10:15 60° SSE 14:24:57 10° ENE daylight
03 Aug - 16:02:46 10° WSW 16:16:44 83° S 16:31:47 10° E daylight
03 Aug - 18:08:50 10° W 18:23:55 77° SSW 18:37:36 10° ESE daylight
03 Aug - 20:15:53 10° WNW 20:29:44 46° SW 20:41:01 10° SSE visible
03 Aug - 22:26:40 10° W 22:33:07 15° SW 22:38:50 10° SSW visible
04 Aug - 11:25:54 10° S 11:33:12 21° SE 11:42:04 10° E daylight
04 Aug - 13:25:45 10° SW 13:36:55 55° SSE 13:51:14 10° ENE daylight
04 Aug - 15:29:40 10° WSW 15:43:05 81° S 15:58:19 10° E daylight
04 Aug - 17:35:26 10° W 17:50:16 79° SSW 18:04:29 10° ESE daylight
04 Aug - 19:42:10 10° WNW 19:56:26 51° SW 20:08:27 10° SE visible
04 Aug - 21:51:45 10° W 22:00:15 19° SW 22:07:37 10° SSW visible
05 Aug - 10:54:28 10° SSE 11:00:25 17° SE 11:07:27 10° E daylight
05 Aug - 12:53:14 10° SW 13:03:40 50° SE 13:17:28 10° ENE daylight
05 Aug - 14:56:41 10° WSW 15:09:27 79° SSE 15:24:46 10° E daylight
05 Aug - 17:02:07 10° W 17:16:35 81° S 17:31:15 10° ESE daylight
05 Aug - 19:08:32 10° WNW 19:23:02 55° SSW 19:35:43 10° SE daylight
05 Aug - 21:17:17 10° W 21:27:18 23° SW 21:35:57 10° S visible
06 Aug - 10:23:40 10° SSE 10:27:42 13° ESE 10:32:15 10° E daylight
06 Aug - 12:20:49 10° SSW 12:30:32 45° SE 12:43:36 10° ENE daylight
06 Aug - 14:23:46 10° WSW 14:35:55 77° SSE 14:51:08 10° E daylight
06 Aug - 16:28:52 10° W 16:42:54 82° S 16:57:55 10° ESE daylight
06 Aug - 18:35:01 10° WNW 18:49:35 59° SSW 19:02:54 10° SE daylight
06 Aug - 20:43:03 10° W 20:54:15 27° SW 21:04:00 10° S visible
07 Aug - 11:48:32 10° SSW 11:57:30 40° SE 12:09:42 10° ENE daylight
07 Aug - 13:50:59 10° WSW 14:02:26 74° SSE 14:17:27 10° E daylight
07 Aug - 15:55:44 10° W 16:09:15 83° S 16:24:29 10° E daylight
07 Aug - 18:01:35 10° WNW 18:16:03 63° SSW 18:29:57 10° SE daylight
07 Aug - 20:09:03 10° W 20:21:07 31° SW 20:31:49 10° S visible
08 Aug - 11:16:23 10° SSW 11:24:35 34° SE 11:35:43 10° E daylight
08 Aug - 13:18:18 10° WSW 13:29:03 70° SSE 13:43:42 10° E daylight
08 Aug - 15:22:42 10° W 15:35:36 84° S 15:50:58 10° E daylight
08 Aug - 17:28:15 10° W 17:42:29 67° SSW 17:56:52 10° SE daylight
08 Aug - 19:35:12 10° W 19:47:55 35° SW 19:59:27 10° SSE visible
09 Aug - 10:44:22 10° S 10:51:45 29° SE 11:01:41 10° E daylight
09 Aug - 12:45:41 10° SW 12:55:46 66° SSE 13:09:55 10° E daylight
09 Aug - 14:49:44 10° W 15:02:01 84° S 15:17:20 10° E daylight
09 Aug - 16:55:01 10° W 17:08:54 70° SSW 17:23:40 10° ESE daylight
09 Aug - 19:01:31 10° W 19:14:37 39° SW 19:26:55 10° SSE daylight
09 Aug - 21:15:14 10° WSW 21:18:17 11° WSW 21:21:15 10° SW visible
